Location: Newark
(52.3735°N, 16.9806°E)
Time: 02:16:19
(UTC+00:00)

TIGRISAT - Visible Passes

Search period start: 27 November 2022 00:00
Search period end: 07 December 2022 00:00
Orbit: 603 x 685 km, 97.7° (Epoch: 26 November)

Date Brightness Start Highest point End Pass type
(mag) Time Alt. Az. Time Alt. Az. Time Alt. Az.
27 Nov ? 02:20:01 10° E 02:22:03 16° ENE 02:22:03 16° ENE visible
27 Nov ? 03:54:24 10° SSE 03:58:42 83° WSW 03:59:42 53° NNW visible
27 Nov ? 05:34:36 10° WSW 05:36:07 12° W 05:37:21 10° WNW visible
27 Nov ? 15:40:09 10° NE 15:42:56 16° E 15:45:43 10° SE visible
27 Nov ? 17:17:13 23° N 17:20:07 81° WNW 17:24:47 10° SSW visible
27 Nov ? 18:54:53 14° NW 18:56:04 15° NW 18:58:39 10° W visible
28 Nov ? 02:43:33 10° ESE 02:46:47 24° ENE 02:46:47 24° ENE visible
28 Nov ? 04:19:14 10° S 04:23:25 49° W 04:24:26 40° WNW visible
28 Nov ? 16:04:33 12° NE 16:07:51 25° E 16:11:41 10° SSE visible
28 Nov ? 17:42:12 24° N 17:44:42 50° WNW 17:49:13 10° SW visible
29 Nov ? 03:07:29 10° SE 03:11:30 38° ENE 03:11:31 38° ENE visible
29 Nov ? 04:44:24 10° SSW 04:48:13 30° W 04:49:10 27° WNW visible
29 Nov ? 16:29:31 17° NE 16:32:41 40° E 16:37:05 10° SSE visible
29 Nov ? 18:07:11 22° NNW 18:09:14 32° WNW 18:13:21 10° SW visible
30 Nov ? 03:31:45 10° SSE 03:36:02 62° ENE 03:36:16 61° NE visible
30 Nov ? 05:10:03 10° SW 05:13:06 18° W 05:13:55 18° WNW visible
30 Nov ? 16:54:29 22° NNE 16:57:26 66° E 17:02:05 10° S visible
30 Nov ? 18:32:09 18° NNW 18:33:40 21° WNW 18:37:10 10° WSW visible
01 Dec ? 02:21:45 10° E 02:23:21 15° ENE 02:23:21 15° ENE visible
01 Dec ? 03:56:18 10° S 04:00:39 79° WSW 04:01:01 72° NW visible
01 Dec ? 05:36:47 10° W 05:38:06 11° W 05:38:40 11° WNW visible
01 Dec ? 15:41:58 10° NE 15:44:56 17° E 15:47:55 10° SE visible
01 Dec ? 17:19:27 26° N 17:22:06 78° WNW 17:26:47 10° SSW visible
01 Dec ? 18:57:07 14° NW 18:58:00 15° NW 19:00:31 10° W visible
02 Dec ? 02:45:20 10° ESE 02:48:07 24° E 02:48:07 24° E visible
02 Dec ? 04:21:10 10° S 04:25:22 47° W 04:25:46 45° W visible
02 Dec ? 16:06:44 14° NE 16:09:51 26° E 16:13:48 10° SSE visible
02 Dec ? 17:44:25 26° N 17:46:41 48° WNW 17:51:10 10° SW visible
03 Dec ? 03:09:20 10° SE 03:12:52 38° E 03:12:52 38° E visible
03 Dec ? 04:46:22 10° SSW 04:50:10 29° W 04:50:32 28° W visible
03 Dec ? 16:31:41 19° NE 16:34:40 42° E 16:39:07 10° S visible
03 Dec ? 18:09:20 23° NNW 18:11:10 31° WNW 18:15:16 10° SW visible
04 Dec ? 03:33:36 10° SSE 03:37:38 63° E 03:37:38 63° E visible
04 Dec ? 05:12:04 10° SW 05:15:04 18° W 05:15:17 18° W visible
04 Dec ? 15:20:57 10° ENE 15:21:56 11° E 15:22:55 10° E visible
04 Dec ? 16:56:37 24° NNE 16:59:25 69° ESE 17:04:05 10° S visible
04 Dec ? 18:34:17 19° NW 18:35:36 21° WNW 18:39:02 10° WSW visible
05 Dec ? 02:23:29 10° E 02:24:45 15° E 02:24:45 15° E visible
05 Dec ? 03:58:11 10° S 04:02:24 74° SW 04:02:24 74° SW visible
05 Dec ? 05:38:59 10° W 05:40:04 11° W 05:40:04 11° W visible
05 Dec ? 15:43:53 10° NE 15:46:56 18° E 15:50:03 10° SE visible
05 Dec ? 17:21:33 27° N 17:24:03 74° WNW 17:28:44 10° SSW visible
05 Dec ? 18:59:13 14° NW 18:59:55 14° NW 19:02:19 10° W visible
06 Dec ? 02:47:08 10° ESE 02:49:31 23° E 02:49:31 23° E visible
06 Dec ? 04:23:04 10° S 04:27:10 45° WSW 04:27:10 45° WSW visible
06 Dec ? 16:08:49 15° NE 16:11:50 28° E 16:15:50 10° SSE visible
06 Dec ? 17:46:28 27° NNW 17:48:37 46° WNW 17:53:06 10° SW visible
